User: anonymous
Location: Fishcreek Rd Observing Site
(41.1865°N, 81.4271°W)
Time: 09:50:33
(UTC-04:00)
Language:

Iridium 45 - Orbit

View from above orbital plane
View from above orbital plane
View from above satellite
View from above satellite

Ground track
Ground track

The orbit data is extracted from the following two-line orbital elements,

1 25104U 97082A   14272.44164407  .00000411  00000-0  13987-3 0  9182
2 25104 087.0268 322.8095 0002015 102.8987 257.2435 14.34219823878229
Epoch (UTC): 29 September 2014 10:35:58
Eccentricity: 0.0002015
inclination: 87.0268°
perigee height: 776 km
apogee height: 779 km
right ascension of ascending node: 322.8095°
argument of perigee: 102.8987°
revolutions per day: 14.34219823
mean anomaly at epoch: 257.2435°
orbit number at epoch: 87822

The dashed part of the orbit path shows where the satellite is in the earth's shadow,  

DLR